[[{"header":{"parameterUnit":"m.s-1","parameterCategory":1,"la1":30.2991,"la2":30.254,"lo1":-89.0895,"lo2":-89.0444,"dy":0.0017,"dx":0.0017,"nx":28,"ny":28,"refTime":"2024-05-16T09:00:00:Z","depth":0,"parameterNumber":2,"parameterNumberName":"U-component_of_WINDS"},"data":[0,0,0,0,0,0,0,0,0,0,0,0,0,0,0,0,0,0,0,0,0,0,0,0,0,0,0,0,0,0,0,0,0,0,0,0,0,0,0,0,0,0,0,0,0,0,0,0,0,0,0,0,0,0,0,0,0,0,-2.5958,-2.5959,0,-2.5993,-2.5994,-2.5994,-2.5911,-2.5908,-2.5906,-2.5903,-2.594,-2.5943,-2.5947,0,0,0,0,0,0,0,0,0,0,0,0,0,-2.5819,-2.5822,-2.5958,-2.5959,-2.5959,-2.5993,-2.5994,-2.5994,-2.5912,-2.5908,-2.5905,-2.5902,-2.5939,-2.5943,-2.5947,0,0,0,0,0,0,0,0,0,0,0,0,0,-2.587,-2.5823,-2.5958,-2.5922,-2.5919,-2.5993,-2.5994,-2.5994,-2.5912,-2.5908,-2.5904,-2.5901,-2.5938,-2.5943,-2.5948,-2.6059,0,0,-2.5963,-2.5966,0,0,0,0,0,0,0,0,-2.5867,-2.5875,-2.5927,-2.5925,-2.5921,-2.5944,-2.5958,-2.6016,-2.5913,-2.5915,-2.5903,-2.5899,-2.5945,-2.5949,-2.5964,-2.6061,-2.6062,-2.5964,-2.5967,-2.5969,-2.5971,0,0,0,0,0,0,0,-2.5863,-2.5873,-2.5972,-2.5928,-2.5924,-2.5904,-2.5907,-2.5969,-2.5952,-2.5914,-2.5908,-2.5914,-2.5942,-2.5959,-2.5964,-2.6063,-2.5964,-2.5968,-2.5971,-2.5973,-2.6251,-2.6255,0,0,0,0,0,0,-2.5864,-2.587,-2.5971,-2.5973,-2.5884,-2.591,-2.5913,-2.5941,-2.5951,-2.5948,-2.5917,-2.591,-2.5953,-2.5958,-2.5965,-2.6096,-2.5969,-2.5974,-2.5977,-2.6247,-2.6252,-2.6257,0,0,0,0,0,0,-2.5862,-2.5874,-2.597,-2.592,-2.5931,-2.5916,-2.5948,-2.5943,-2.596,-2.5953,-2.5949,-2.5938,-2.595,-2.5958,-2.6036,-2.6096,-2.5976,-2.5981,-2.6242,-2.6248,-2.6254,-2.6358,0,0,0,0,0,0,-2.5858,-2.5874,-2.5916,-2.5922,-2.5934,-2.604,-2.5952,-2.5947,-2.5969,-2.596,-2.5971,-2.5969,-2.5947,-2.6029,-2.6041,-2.6101,-2.5985,-2.6236,-2.6245,-2.6252,-2.6349,-2.6367,-2.6383,0,0,0,0,0,-2.5854,-2.5944,-2.5919,-2.5931,-2.5986,-2.6044,-2.6051,-2.6023,-2.5975,-2.6017,-2.6012,-2.5969,-2.6087,-2.6037,-2.6051,-2.6113,-2.6232,-2.6242,-2.6252,-2.6342,-2.6364,-2.6382,0,0,0,0,0,0,-2.5946,-2.5944,-2.5916,-2.6011,-2.6028,-2.603,-2.6082,-2.6048,-2.6079,-2.6069,-2.6034,-2.6037,-2.6121,-2.6125,-2.6069,-2.622,-2.6152,-2.6164,-2.6215,-2.6236,-2.6253,-2.625,-2.5989,0,0,0,0,0,-2.5978,-2.6025,-2.602,-2.6105,-2.6115,-2.6097,-2.6121,-2.6099,-2.6115,-2.6122,-2.6122,-2.614,-2.6181,-2.6208,-2.6246,-2.6349,-2.635,-2.6398,-2.6415,-2.6429,-2.644,-2.6494,-2.6516,-2.6288,-2.6288,-2.6288,0,0,-2.6044,-2.6048,-2.608,-2.6124,-2.6134,-2.6183,-2.6104,-2.6159,-2.6195,-2.613,-2.6204,-2.6205,-2.6222,-2.6313,-2.6353,-2.6318,-2.6503,-2.6441,-2.6452,-2.6456,-2.6506,-2.6528,-2.6547,-2.6295,-2.6294,-2.6293,0,0,-2.6189,-2.6197,-2.6268,-2.628,-2.6297,-2.6284,-2.6301,-2.6308,-2.6306,-2.6379,-2.6331,-2.6373,-2.6444,-2.6458,-2.6475,-2.6624,-2.6586,-2.6637,-2.6725,-2.6778,-2.6796,-2.6812,-2.6865,-2.6884,-2.6649,-2.6649,-2.6649,0,-2.6269,-2.6341,-2.6309,-2.6368,-2.6388,-2.6331,-2.6402,-2.6415,-2.6444,-2.6459,-2.6419,-2.6507,-2.6515,-2.6608,-2.6644,-2.666,-2.6678,-2.6636,-2.6796,-2.6811,-2.6825,-2.6876,-2.6896,-2.6655,-2.6654,-2.6654,-2.6653,0,-2.6438,-2.6488,-2.6544,-2.6572,-2.6598,-2.6663,-2.6641,-2.6672,-2.6647,-2.6638,-2.6713,-2.672,-2.6757,-2.6778,-2.6754,-2.6867,-2.6845,-2.6802,-2.6732,-2.6854,-2.69,-2.6919,-2.6664,-2.6662,-2.666,-2.6658,0,0,-2.6643,-2.6652,-2.6673,-2.6685,-2.6699,-2.6737,-2.6799,-2.6835,-2.6862,-2.6883,-2.6934,-2.6996,-2.6955,-2.6974,-2.6951,-2.6998,-2.7115,-2.6948,-2.6947,-2.6978,-2.724,-2.7273,-2.7296,-2.7089,-2.7093,-2.7095,-2.7238,0,-2.6786,-2.6893,-2.6865,-2.6971,-2.7017,-2.6963,-2.7017,-2.7031,-2.7025,-2.7063,-2.7055,-2.7099,-2.7042,-2.7053,-2.7097,-2.7091,-2.7167,-2.7081,-2.7136,-2.7138,-2.7134,-2.732,-2.7355,-2.749,-2.7256,-2.7259,-2.7261,0,-2.6968,-2.6995,-2.7106,-2.7111,-2.7129,-2.7178,-2.7209,-2.7246,-2.7261,-2.7253,-2.7273,-2.7241,-2.7301,-2.7231,-2.7314,-2.7256,-2.7277,-2.7277,-2.7282,-2.7286,-2.7208,-2.7329,-2.7532,-2.7552,-2.729,-2.7288,-2.7286,0,-2.7107,-2.7171,-2.7245,-2.7257,-2.7265,-2.7301,-2.7306,-2.7317,-2.734,-2.7366,-2.7381,-2.7415,-2.7433,-2.746,-2.7437,-2.7388,-2.7524,-2.7451,-2.7519,-2.7519,-2.755,-2.7549,-2.7759,-2.7564,-2.7563,-2.7563,-2.7563,0,-2.7269,-2.7339,-2.7308,-2.7354,-2.743,-2.7397,-2.7473,-2.7472,-2.7482,-2.7526,-2.7481,-2.7524,-2.7491,-2.753,-2.7513,-2.7584,-2.7593,-2.7588,-2.7583,-2.7592,-2.7593,-2.7606,-2.7596,-2.7568,-2.7567,-2.7566,-2.7565,0,-2.7438,-2.742,-2.7497,-2.7498,-2.7499,-2.7556,-2.7556,-2.7598,-2.7588,-2.7645,-2.7656,-2.764,-2.7684,-2.7664,-2.7711,-2.7699,-2.779,-2.7772,-2.7786,-2.7781,-2.785,-2.7843,-2.8076,-2.8104,-2.7891,-2.7893,-2.7895,0,-2.7543,-2.7595,-2.7602,-2.7628,-2.7636,-2.7679,-2.7702,-2.7672,-2.7698,-2.7718,-2.7758,-2.7798,-2.7828,-2.7901,-2.7894,-2.7929,-2.7911,-2.799,-2.7917,-2.7924,-2.7913,-2.791,-2.7915,-2.8006,-2.8008,-2.801,-2.8012,0,-2.7732,-2.772,-2.7755,-2.7787,-2.7816,-2.784,-2.786,-2.7884,-2.7855,-2.7886,-2.793,-2.7954,-2.8001,-2.8041,-2.8072,-2.8076,-2.804,-2.8035,-2.8052,-2.8063,-2.8068,-2.8066,-2.7826,-2.803,-2.8028,-2.8027,-2.8026,-2.8025,-2.7872,-2.7915,-2.7926,-2.7967,-2.7978,-2.7998,-2.8037,-2.8032,-2.8068,-2.8104,-2.8083,-2.8135,-2.8148,-2.8185,-2.8194,-2.8234,-2.8203,-2.8228,-2.8235,-2.8242,-2.8251,-2.8062,-2.824,-2.8239,-2.8239,-2.8238,-2.8238,0,-2.8058,-2.8062,-2.81,-2.8129,-2.816,-2.8122,-2.8142,-2.8171,-2.8217,-2.8232,-2.8262,-2.8313,-2.8351,-2.8347,-2.8382,-2.8415,-2.8399,-2.8425,-2.8422,-2.8424,-2.8277,-2.8258,-2.8437,-2.8437,-2.8437,-2.8437,-2.8437,-2.8437,-2.8159,-2.823,-2.822,-2.8296,-2.8299,-2.835,-2.8364,-2.8382,-2.8393,-2.8451,-2.8483,-2.8479,-2.8486,-2.8521,-2.8555,-2.8552,-2.8567,-2.86,-2.8592,-2.8454,-2.8434,-2.8416,-2.8398,-2.8604,-2.8604,-2.8735,-2.8737,-2.8738]},{"header":{"parameterUnit":"m.s-1","parameterCategory":1,"la1":30.2991,"la2":30.254,"lo1":-89.0895,"lo2":-89.0444,"dy":0.0017,"dx":0.0017,"nx":28,"ny":28,"refTime":"2024-05-16T09:00:00:Z","depth":0,"parameterNumber":3,"parameterNumberName":"V-component_of_WINDS"},"data":[0,0,0,0,0,0,0,0,0,0,0,0,0,0,0,0,0,0,0,0,0,0,0,0,0,0,0,0,0,0,0,0,0,0,0,0,0,0,0,0,0,0,0,0,0,0,0,0,0,0,0,0,0,0,0,0,0,0,-0.9673,-0.9673,0,-0.9706,-0.9706,-0.9707,-0.9733,-0.9733,-0.9733,-0.9734,-0.9765,-0.9766,-0.9766,0,0,0,0,0,0,0,0,0,0,0,0,0,-0.9628,-0.9629,-0.9673,-0.9673,-0.9673,-0.9706,-0.9706,-0.9707,-0.9733,-0.9733,-0.9733,-0.9734,-0.9765,-0.9766,-0.9766,0,0,0,0,0,0,0,0,0,0,0,0,0,-0.9653,-0.9629,-0.9672,-0.969,-0.9692,-0.9706,-0.9706,-0.9707,-0.9733,-0.9733,-0.9734,-0.9734,-0.9765,-0.9766,-0.9767,-0.9764,0,0,-0.9769,-0.977,0,0,0,0,0,0,0,0,-0.9652,-0.9655,-0.9687,-0.9689,-0.9691,-0.9716,-0.9702,-0.9726,-0.9733,-0.9717,-0.9734,-0.9734,-0.9748,-0.9751,-0.9756,-0.9766,-0.9767,-0.9769,-0.977,-0.977,-0.9771,0,0,0,0,0,0,0,-0.965,-0.9653,-0.9686,-0.9688,-0.969,-0.9696,-0.97,-0.9707,-0.973,-0.9719,-0.9721,-0.9724,-0.9749,-0.9755,-0.9757,-0.9767,-0.9769,-0.977,-0.9771,-0.9771,-0.9776,-0.9775,0,0,0,0,0,0,-0.9646,-0.9652,-0.9685,-0.9687,-0.9672,-0.9696,-0.9701,-0.9707,-0.973,-0.9734,-0.9724,-0.9726,-0.9753,-0.9756,-0.9758,-0.9756,-0.977,-0.9771,-0.9772,-0.9776,-0.9775,-0.9775,0,0,0,0,0,0,-0.9645,-0.9648,-0.9683,-0.967,-0.9675,-0.9697,-0.9704,-0.9708,-0.9713,-0.9734,-0.9738,-0.9726,-0.9754,-0.9757,-0.9762,-0.9757,-0.9772,-0.9772,-0.9776,-0.9776,-0.9775,-0.9752,0,0,0,0,0,0,-0.9643,-0.9648,-0.9648,-0.967,-0.9675,-0.9688,-0.9704,-0.9708,-0.9715,-0.9717,-0.9737,-0.974,-0.9754,-0.9761,-0.9763,-0.9759,-0.9773,-0.9777,-0.9776,-0.9775,-0.9753,-0.975,-0.9748,0,0,0,0,0,-0.9642,-0.964,-0.9648,-0.9652,-0.9676,-0.9688,-0.9691,-0.9708,-0.9715,-0.9714,-0.9728,-0.974,-0.9758,-0.9761,-0.9764,-0.976,-0.9777,-0.9776,-0.9776,-0.9754,-0.9751,-0.9748,0,0,0,0,0,0,-0.9616,-0.9643,-0.9652,-0.9658,-0.967,-0.9692,-0.9692,-0.9704,-0.9714,-0.9715,-0.9735,-0.9739,-0.9742,-0.9752,-0.9755,-0.9758,-0.9769,-0.9769,-0.9752,-0.9749,-0.9746,-0.9744,-0.9774,0,0,0,0,0,-0.9611,-0.9619,-0.9642,-0.9644,-0.965,-0.967,-0.9676,-0.9688,-0.9701,-0.9706,-0.972,-0.9732,-0.974,-0.9745,-0.9754,-0.9755,-0.9759,-0.9753,-0.9751,-0.9749,-0.9748,-0.9747,-0.9745,-0.9772,-0.9772,-0.9772,0,0,-0.9601,-0.9617,-0.962,-0.964,-0.9651,-0.9658,-0.9674,-0.9681,-0.9686,-0.9707,-0.9713,-0.9724,-0.9738,-0.9741,-0.9743,-0.9749,-0.9741,-0.9747,-0.9745,-0.9746,-0.9746,-0.9744,-0.9741,-0.9771,-0.9771,-0.9772,0,0,-0.9586,-0.9599,-0.9602,-0.9613,-0.963,-0.9643,-0.9643,-0.9663,-0.9671,-0.9678,-0.9694,-0.9699,-0.9713,-0.9723,-0.9729,-0.9717,-0.9728,-0.9719,-0.9706,-0.9705,-0.9703,-0.9701,-0.9696,-0.9694,-0.9718,-0.9718,-0.9718,0,-0.957,-0.9582,-0.9602,-0.9607,-0.9615,-0.9635,-0.9637,-0.9647,-0.9665,-0.9669,-0.9676,-0.9694,-0.9705,-0.971,-0.9706,-0.9712,-0.9712,-0.9717,-0.9702,-0.9701,-0.9699,-0.9694,-0.9692,-0.9717,-0.9717,-0.9717,-0.9717,0,-0.9562,-0.957,-0.957,-0.9588,-0.9596,-0.96,-0.9618,-0.9623,-0.9635,-0.9646,-0.9652,-0.9666,-0.9678,-0.968,-0.9691,-0.9686,-0.9689,-0.9699,-0.971,-0.9695,-0.969,-0.9689,-0.9715,-0.9716,-0.9716,-0.9716,0,0,-0.9532,-0.956,-0.956,-0.9568,-0.9588,-0.9593,-0.9598,-0.961,-0.9613,-0.9625,-0.9628,-0.964,-0.9649,-0.9656,-0.9668,-0.9668,-0.9655,-0.9677,-0.9678,-0.9672,-0.9649,-0.9641,-0.9639,-0.9663,-0.9663,-0.9663,-0.9648,0,-0.9518,-0.9528,-0.9545,-0.9549,-0.9556,-0.9575,-0.9578,-0.959,-0.9602,-0.9608,-0.962,-0.9627,-0.9639,-0.9644,-0.9644,-0.9657,-0.9651,-0.9658,-0.9665,-0.9665,-0.966,-0.9636,-0.9628,-0.9613,-0.9646,-0.9646,-0.9646,0,-0.9505,-0.9516,-0.952,-0.9539,-0.9543,-0.9546,-0.9557,-0.9564,-0.9577,-0.9585,-0.9593,-0.9607,-0.9611,-0.9622,-0.9627,-0.9632,-0.9635,-0.9642,-0.9642,-0.9642,-0.9654,-0.9635,-0.9609,-0.9606,-0.9643,-0.9643,-0.9644,0,-0.948,-0.9497,-0.9501,-0.9508,-0.953,-0.9531,-0.954,-0.9554,-0.956,-0.957,-0.9574,-0.9584,-0.9589,-0.9596,-0.9611,-0.9618,-0.9615,-0.9627,-0.962,-0.962,-0.9618,-0.9618,-0.9591,-0.9622,-0.9622,-0.9622,-0.9622,0,-0.9463,-0.9465,-0.949,-0.9493,-0.9495,-0.9514,-0.9515,-0.9526,-0.9538,-0.9543,-0.956,-0.9563,-0.9583,-0.9589,-0.96,-0.9602,-0.9605,-0.961,-0.9613,-0.9608,-0.9607,-0.961,-0.9611,-0.9622,-0.9622,-0.9622,-0.9622,0,-0.9436,-0.9453,-0.9459,-0.948,-0.9485,-0.9486,-0.9503,-0.9505,-0.9518,-0.9523,-0.9525,-0.9544,-0.9551,-0.9567,-0.9578,-0.9586,-0.9584,-0.959,-0.958,-0.9581,-0.9573,-0.9573,-0.9546,-0.9543,-0.9577,-0.9577,-0.9577,0,-0.9423,-0.9425,-0.9446,-0.945,-0.9459,-0.9466,-0.9472,-0.9491,-0.9496,-0.9511,-0.9512,-0.952,-0.9528,-0.9538,-0.9552,-0.9561,-0.9566,-0.9556,-0.9568,-0.9562,-0.9565,-0.9564,-0.9563,-0.9553,-0.9553,-0.9553,-0.9552,0,-0.9399,-0.9407,-0.9416,-0.9427,-0.9434,-0.9444,-0.9454,-0.9456,-0.9477,-0.9482,-0.949,-0.9496,-0.9508,-0.9515,-0.9526,-0.9534,-0.9546,-0.9549,-0.9547,-0.9542,-0.9535,-0.9537,-0.9572,-0.9549,-0.9549,-0.955,-0.955,-0.955,-0.9378,-0.938,-0.9395,-0.9403,-0.9413,-0.9422,-0.9426,-0.9438,-0.9445,-0.9457,-0.9467,-0.9473,-0.9486,-0.9501,-0.9509,-0.9513,-0.9519,-0.9518,-0.9517,-0.9516,-0.9513,-0.9535,-0.9515,-0.9516,-0.9516,-0.9516,-0.9516,0,-0.9353,-0.9364,-0.9371,-0.9385,-0.9392,-0.9404,-0.9416,-0.942,-0.9425,-0.9437,-0.9444,-0.9452,-0.946,-0.9474,-0.9483,-0.9483,-0.9489,-0.9485,-0.9484,-0.9486,-0.9508,-0.9508,-0.948,-0.948,-0.948,-0.948,-0.948,-0.948,-0.9341,-0.9345,-0.9354,-0.9363,-0.9373,-0.938,-0.9386,-0.9394,-0.9402,-0.9411,-0.9418,-0.9427,-0.9439,-0.9449,-0.9456,-0.946,-0.9461,-0.9455,-0.9461,-0.9481,-0.9484,-0.9487,-0.9487,-0.9456,-0.9456,-0.9438,-0.9438,-0.9438]}]]